Home > Time Zones > World Clock > Weather > U.S.A. > Gary > Past weeks

Flag for U.S.A. Weather past 2 weeks in Gary, Indiana, U.S.A.

Now
67 °F

Scattered clouds.


Feels Like: 67 °F
Forecast: 65 / 74 °F
Wind: 18 mph from Northeast

Location: Lansing Municipal Airport

Current Time: Jul 23, 2014 at 11:26:12 AM

Latest Report: Jul 23, 2014 at 10:55 AM


Visibility: 10 mi

Pressure: 30.14 "Hg

Humidity: 70%

Dew point: 57 °F

Location of GaryLocation

Historic Weather in Gary — Graph

°F

Gary temperature yesterday

Maximum temperature yesterday: 84 °F (at 6:55 PM)
Minimum temperature yesterday: 64 °F (at 3:55 AM)
Average temperature yesterday: 74 °F

Past Weeks' High & Low Weather Summary

 TemperatureHumidityPressure
High84 °F (Jul 22, 6:55 PM)95% (Jul 10, 4:35 AM)30.24 "Hg (Jul 10, 4:35 AM)
Low51 °F (Jul 17, 4:55 AM)34% (Jul 11, 1:55 PM)29.71 "Hg (Jul 8, 10:15 AM)
Average69 °F68%30.03 "Hg
* Reported Jul 8 10:15 AM — Jul 23 10:35 AM, Gary, Weather by CustomWeather, © 2014

Note: Actual official high and low records may vary slightly from our data, if they occured in-between our weather recording intervals... More about our weather records

Advertising

Gary weather history for previous 24 hours

 ConditionsComfort  
Time TempWeatherWind HumidityBarometerVisibility
10:35 AM
Jul 23
66 °FScattered clouds.18 mph69%30.14 "Hg10 mi
10:15 AM66 °FScattered clouds.20 mph69%30.13 "Hg10 mi
9:55 AM68 °FPartly sunny.17 mph69%30.14 "Hg10 mi
9:35 AM67 °FScattered clouds.16 mph69%30.13 "Hg10 mi
8:55 AM65 °FScattered clouds.17 mph72%30.13 "Hg10 mi
8:35 AM65 °FScattered clouds.17 mph73%30.13 "Hg10 mi
8:15 AM66 °FPartly sunny.12 mph73%30.13 "Hg10 mi
7:35 AM65 °FOvercast.14 mph74%30.10 "Hg10 mi
6:35 AM64 °FSunny.15 mph76%30.09 "Hg10 mi
6:15 AM64 °FScattered clouds.16 mph76%30.08 "Hg10 mi
5:55 AM64 °FSunny.16 mph76%30.08 "Hg10 mi
5:15 AM65 °FClear.15 mph78%30.06 "Hg10 mi
4:55 AM65 °FClear.13 mph79%30.05 "Hg10 mi
4:35 AM65 °FPassing clouds.13 mph79%30.05 "Hg10 mi
3:55 AM66 °FOvercast.12 mph79%30.04 "Hg10 mi
3:15 AM67 °FOvercast.9 mph82%30.04 "Hg10 mi
2:55 AM67 °FPassing clouds.16 mph84%30.03 "Hg10 mi
12:55 AM71 °FStrong thunderstorms. Mostly cloudy.No wind90%30.00 "Hg2 mi
12:15 AM78 °FThundershowers. Partly cloudy.5 mph85%29.98 "Hg7 mi
11:55 PM
Jul 22
78 °FClear.5 mph84%29.97 "Hg7 mi
11:15 PM79 °FThundershowers. Passing clouds.6 mph81%29.97 "Hg10 mi
10:55 PM79 °FClear.9 mph80%29.96 "Hg10 mi
10:35 PM79 °FClear.8 mph79%29.96 "Hg10 mi
10:15 PM80 °FPassing clouds.9 mph78%29.96 "Hg10 mi
9:55 PM81 °FOvercast.8 mph76%29.96 "Hg10 mi
9:35 PM81 °FMostly cloudy.9 mph76%29.97 "Hg10 mi
9:15 PM81 °FPartly cloudy.7 mph76%29.97 "Hg10 mi
8:55 PM81 °FPartly cloudy.7 mph76%29.97 "Hg10 mi
8:35 PM82 °FMostly cloudy.7 mph74%29.97 "Hg10 mi
8:15 PM82 °FMore clouds than sun.6 mph72%29.96 "Hg10 mi
7:55 PM83 °FMostly cloudy.7 mph70%29.97 "Hg10 mi
7:35 PM83 °FPartly sunny.10 mph70%29.97 "Hg10 mi
6:55 PM84 °FScattered clouds.13 mph67%29.96 "Hg10 mi
11:55 AM83 °FSunny.15 mph57%30.04 "Hg10 mi
11:15 AM82 °FSunny.14 mph59%30.04 "Hg10 mi
Weather by CustomWeather, © 2014

See weather overviewHow to use our weather pages